Time,TemperatureF,DewpointF,PressureIn,WindDirection,WindDirectionDegrees,WindSpeedMPH,WindSpeedGustMPH,Humidity,HourlyPrecipIn,Conditions,Clouds,dailyrainin,SolarRadiationWatts/m^2,SoftwareType,DateUTC
2013-07-26 00:01:00,62.1,58.8,30.02,NE,45,0.0,0.0,89,0.00,,CLR,0.00,0.00,VWS V14.01,2013-07-26 04:01:00,
2013-07-26 00:02:00,62.0,58.7,30.02,NE,45,0.0,0.0,89,0.00,,CLR,0.00,0.00,VWS V14.01,2013-07-26 04:02:00,
2013-07-26 00:03:00,62.0,58.7,30.02,NE,45,0.0,0.0,89,0.00,,CLR,0.00,0.00,VWS V14.01,2013-07-26 04:03:00,
2013-07-26 00:08:00,62.0,59.0,30.02,NE,45,0.0,0.0,90,0.00,,CLR,0.00,0.00,VWS V14.01,2013-07-26 04:08:00,
2013-07-26 00:13:00,61.9,58.9,30.02,NE,45,0.0,0.0,90,0.00,,CLR,0.00,0.00,VWS V14.01,2013-07-26 04:13:00,
2013-07-26 00:18:00,61.8,58.8,30.02,NE,45,0.0,0.0,90,0.00,,CLR,0.00,0.00,VWS V14.01,2013-07-26 04:18:00,
2013-07-26 00:23:00,61.7,59.0,30.02,NE,45,0.0,0.0,91,0.00,,CLR,0.00,0.00,VWS V14.01,2013-07-26 04:23:00,
2013-07-26 00:28:00,61.7,59.4,30.02,NE,45,0.0,0.0,92,0.00,,CLR,0.00,0.00,VWS V14.01,2013-07-26 04:28:00,
2013-07-26 00:33:00,61.5,58.8,30.03,NE,45,0.0,0.0,91,0.00,,CLR,0.00,0.00,VWS V14.01,2013-07-26 04:33:00,
2013-07-26 00:38:00,61.5,59.2,30.03,NE,45,0.0,0.0,92,0.00,,CLR,0.00,0.00,VWS V14.01,2013-07-26 04:38:00,
2013-07-26 00:43:00,61.4,59.1,30.02,NE,45,0.0,0.0,92,0.00,,CLR,0.00,0.00,VWS V14.01,2013-07-26 04:43:00,
2013-07-26 00:48:00,61.3,59.0,30.02,NE,45,0.0,0.0,92,0.00,,CLR,0.00,0.00,VWS V14.01,2013-07-26 04:48:00,
2013-07-26 00:53:00,61.1,58.8,30.02,NE,45,0.0,0.0,92,0.00,,CLR,0.00,0.00,VWS V14.01,2013-07-26 04:53:00,
2013-07-26 00:58:00,61.1,58.8,30.02,NE,45,0.0,0.0,92,0.00,,CLR,0.00,0.00,VWS V14.01,2013-07-26 04:58:00,
2013-07-26 01:03:00,61.3,59.3,30.03,NE,45,0.0,0.0,93,0.00,,CLR,0.00,0.00,VWS V14.01,2013-07-26 05:03:00,
2013-07-26 01:08:00,61.2,59.2,30.03,NE,45,0.0,0.0,93,0.00,,CLR,0.00,0.00,VWS V14.01,2013-07-26 05:08:00,
2013-07-26 01:13:00,61.2,59.2,30.02,NE,45,0.0,0.0,93,0.00,,CLR,0.00,0.00,VWS V14.01,2013-07-26 05:13:00,
2013-07-26 01:18:00,61.0,59.0,30.02,NE,45,0.0,0.0,93,0.00,,CLR,0.00,0.00,VWS V14.01,2013-07-26 05:18:00,
2013-07-26 01:23:00,60.9,58.9,30.02,NE,45,0.0,0.0,93,0.00,,CLR,0.00,0.00,VWS V14.01,2013-07-26 05:23:00,
2013-07-26 01:29:00,60.7,58.7,30.02,NE,45,0.0,0.0,93,0.00,,CLR,0.00,0.00,VWS V14.01,2013-07-26 05:29:00,
2013-07-26 01:34:00,60.6,58.6,30.02,NE,45,0.0,0.0,93,0.00,,CLR,0.00,0.00,VWS V14.01,2013-07-26 05:34:00,
2013-07-26 01:39:00,60.4,58.4,30.02,NE,45,0.0,1.0,93,0.00,,CLR,0.00,0.00,VWS V14.01,2013-07-26 05:39:00,
2013-07-26 01:44:00,60.3,58.3,30.02,NE,46,0.0,0.0,93,0.00,,CLR,0.00,0.00,VWS V14.01,2013-07-26 05:44:00,
2013-07-26 01:49:00,60.2,58.5,30.02,NE,46,0.0,0.0,94,0.00,,CLR,0.00,0.00,VWS V14.01,2013-07-26 05:49:00,
2013-07-26 01:54:00,60.1,58.4,30.02,NE,46,0.0,0.0,94,0.00,,CLR,0.00,0.00,VWS V14.01,2013-07-26 05:54:00,
2013-07-26 01:59:00,59.9,58.2,30.02,NE,46,0.0,0.0,94,0.00,,CLR,0.00,0.00,VWS V14.01,2013-07-26 05:59:00,
2013-07-26 02:04:00,59.8,58.1,30.01,NE,46,0.0,0.0,94,0.00,,CLR,0.00,0.00,VWS V14.01,2013-07-26 06:04:00,
2013-07-26 02:09:00,59.7,58.0,30.02,NE,46,0.0,0.0,94,0.00,,CLR,0.00,0.00,VWS V14.01,2013-07-26 06:09:00,
2013-07-26 02:14:00,59.6,57.9,30.02,NE,46,0.0,0.0,94,0.00,,CLR,0.00,0.00,VWS V14.01,2013-07-26 06:14:00,
2013-07-26 02:19:00,59.4,57.7,30.02,NE,46,0.0,0.0,94,0.00,,CLR,0.00,0.00,VWS V14.01,2013-07-26 06:19:00,
2013-07-26 02:24:00,59.3,57.6,30.02,NE,46,0.0,0.0,94,0.00,,CLR,0.00,0.00,VWS V14.01,2013-07-26 06:24:00,
2013-07-26 02:29:00,59.1,57.4,30.01,NE,46,0.0,0.0,94,0.00,,CLR,0.00,0.00,VWS V14.01,2013-07-26 06:29:00,
2013-07-26 02:34:00,59.0,57.3,30.01,NE,46,0.0,0.0,94,0.00,,CLR,0.00,0.00,VWS V14.01,2013-07-26 06:34:00,
2013-07-26 02:39:00,59.0,57.3,30.01,NE,46,0.0,0.0,94,0.00,,CLR,0.00,0.00,VWS V14.01,2013-07-26 06:39:00,
2013-07-26 02:44:00,59.0,57.3,30.01,NE,46,0.0,0.0,94,0.00,,CLR,0.00,0.00,VWS V14.01,2013-07-26 06:44:00,
2013-07-26 02:49:00,59.0,57.6,30.01,NE,46,0.0,0.0,95,0.00,,CLR,0.00,0.00,VWS V14.01,2013-07-26 06:49:00,
2013-07-26 02:54:00,59.0,57.6,30.01,NE,46,0.0,0.0,95,0.00,,CLR,0.00,0.00,VWS V14.01,2013-07-26 06:54:00,
2013-07-26 02:59:00,59.0,57.6,30.01,NE,46,0.0,0.0,95,0.00,,CLR,0.00,0.00,VWS V14.01,2013-07-26 06:59:00,
2013-07-26 03:04:00,59.0,57.6,30.01,NE,46,0.0,0.0,95,0.00,,CLR,0.00,0.00,VWS V14.01,2013-07-26 07:04:00,
2013-07-26 03:09:00,58.9,57.5,30.01,NE,46,0.0,0.0,95,0.00,,CLR,0.00,0.00,VWS V14.01,2013-07-26 07:09:00,
2013-07-26 03:14:00,58.9,57.5,30.01,NE,46,0.0,0.0,95,0.00,,CLR,0.00,0.00,VWS V14.01,2013-07-26 07:14:00,
2013-07-26 03:19:00,58.8,57.4,30.02,NE,46,0.0,0.0,95,0.00,,CLR,0.00,0.00,VWS V14.01,2013-07-26 07:19:00,
2013-07-26 03:24:00,58.7,57.3,30.02,NE,46,0.0,0.0,95,0.00,,CLR,0.00,0.00,VWS V14.01,2013-07-26 07:24:00,
2013-07-26 03:29:00,58.6,57.2,30.01,NE,46,0.0,0.0,95,0.00,,CLR,0.00,0.00,VWS V14.01,2013-07-26 07:29:00,
2013-07-26 03:34:00,58.5,57.1,30.02,NE,46,0.0,0.0,95,0.00,,CLR,0.00,0.00,VWS V14.01,2013-07-26 07:34:00,
2013-07-26 03:39:00,58.4,57.0,30.02,NE,46,0.0,0.0,95,0.00,,CLR,0.00,0.00,VWS V14.01,2013-07-26 07:39:00,
2013-07-26 03:44:00,58.3,56.9,30.02,NE,46,0.0,0.0,95,0.00,,CLR,0.00,0.00,VWS V14.01,2013-07-26 07:44:00,
2013-07-26 03:49:00,58.1,56.7,30.01,NE,46,0.0,0.0,95,0.00,,CLR,0.00,0.00,VWS V14.01,2013-07-26 07:49:00,
2013-07-26 03:54:00,58.0,56.6,30.02,NE,46,0.0,0.0,95,0.00,,CLR,0.00,0.00,VWS V14.01,2013-07-26 07:54:00,
2013-07-26 03:59:00,58.0,56.6,30.02,NE,46,0.0,0.0,95,0.00,,CLR,0.00,0.00,VWS V14.01,2013-07-26 07:59:00,
2013-07-26 04:04:00,57.8,56.4,30.02,NE,46,0.0,0.0,95,0.00,,CLR,0.00,0.00,VWS V14.01,2013-07-26 08:04:00,
2013-07-26 04:09:00,57.8,56.7,30.02,NE,46,0.0,0.0,96,0.00,,CLR,0.00,0.00,VWS V14.01,2013-07-26 08:09:00,
2013-07-26 04:14:00,57.9,56.8,30.03,NE,46,0.0,0.0,96,0.00,,CLR,0.00,0.00,VWS V14.01,2013-07-26 08:14:00,
2013-07-26 04:19:00,57.9,56.8,30.03,NE,46,0.0,0.0,96,0.00,,CLR,0.00,0.00,VWS V14.01,2013-07-26 08:19:00,
2013-07-26 04:25:00,57.9,56.8,30.03,NE,46,0.0,0.0,96,0.00,,CLR,0.00,0.00,VWS V14.01,2013-07-26 08:25:00,
2013-07-26 04:30:00,57.9,56.8,30.03,NE,46,0.0,0.0,96,0.00,,CLR,0.00,0.00,VWS V14.01,2013-07-26 08:30:00,
2013-07-26 04:35:00,58.0,56.9,30.03,NE,46,0.0,0.0,96,0.00,,CLR,0.00,0.00,VWS V14.01,2013-07-26 08:35:00,
2013-07-26 04:40:00,58.1,57.0,30.03,NE,46,0.0,0.0,96,0.00,,CLR,0.00,0.00,VWS V14.01,2013-07-26 08:40:00,
2013-07-26 04:45:00,58.0,56.9,30.03,NE,46,0.0,0.0,96,0.00,,CLR,0.00,0.00,VWS V14.01,2013-07-26 08:45:00,
2013-07-26 04:50:00,58.0,56.9,30.03,NE,46,0.0,0.0,96,0.00,,CLR,0.00,0.00,VWS V14.01,2013-07-26 08:50:00,
2013-07-26 04:55:00,58.0,56.9,30.03,NE,46,0.0,0.0,96,0.00,,CLR,0.00,0.00,VWS V14.01,2013-07-26 08:55:00,
2013-07-26 05:00:00,57.9,56.8,30.03,NE,46,0.0,0.0,96,0.00,,CLR,0.00,0.00,VWS V14.01,2013-07-26 09:00:00,
2013-07-26 05:05:00,57.8,56.7,30.03,NE,46,0.0,0.0,96,0.00,,CLR,0.00,0.00,VWS V14.01,2013-07-26 09:05:00,
2013-07-26 05:10:00,57.8,57.0,30.03,NE,46,0.0,0.0,97,0.00,,CLR,0.00,0.00,VWS V14.01,2013-07-26 09:10:00,
2013-07-26 05:15:00,57.7,56.9,30.03,NE,46,0.0,0.0,97,0.00,,CLR,0.00,0.00,VWS V14.01,2013-07-26 09:15:00,
2013-07-26 05:20:00,57.6,56.8,30.03,NE,46,0.0,0.0,97,0.00,,CLR,0.00,0.00,VWS V14.01,2013-07-26 09:20:00,
2013-07-26 05:25:00,57.5,56.7,30.03,NE,46,0.0,0.0,97,0.00,,CLR,0.00,0.00,VWS V14.01,2013-07-26 09:25:00,
2013-07-26 05:30:00,57.3,56.5,30.03,NE,46,0.0,0.0,97,0.00,,CLR,0.00,0.00,VWS V14.01,2013-07-26 09:30:00,
2013-07-26 05:35:00,57.2,56.1,30.03,NE,46,0.0,0.0,96,0.00,,CLR,0.00,0.00,VWS V14.01,2013-07-26 09:35:00,
2013-07-26 05:40:00,57.0,55.9,30.03,NE,46,0.0,0.0,96,0.00,,CLR,0.00,0.00,VWS V14.01,2013-07-26 09:40:00,
2013-07-26 05:45:00,56.9,56.1,30.03,NE,46,0.0,0.0,97,0.00,,CLR,0.00,0.00,VWS V14.01,2013-07-26 09:45:00,
2013-07-26 05:50:00,56.8,56.0,30.03,NE,46,0.0,0.0,97,0.00,,CLR,0.00,0.00,VWS V14.01,2013-07-26 09:50:00,
2013-07-26 05:55:00,56.6,55.5,30.03,NE,46,0.0,0.0,96,0.00,,CLR,0.00,0.00,VWS V14.01,2013-07-26 09:55:00,
2013-07-26 06:00:00,56.5,55.4,30.03,NE,46,0.0,0.0,96,0.00,,CLR,0.00,0.00,VWS V14.01,2013-07-26 10:00:00,
2013-07-26 06:05:00,56.4,55.6,30.03,NE,46,0.0,0.0,97,0.00,,CLR,0.00,0.00,VWS V14.01,2013-07-26 10:05:00,
2013-07-26 06:10:00,56.3,55.5,30.03,NE,46,0.0,0.0,97,0.00,,CLR,0.00,5.00,VWS V14.01,2013-07-26 10:10:00,
2013-07-26 06:15:00,56.2,55.4,30.03,NE,46,0.0,0.0,97,0.00,,CLR,0.00,7.00,VWS V14.01,2013-07-26 10:15:00,
2013-07-26 06:20:00,56.1,55.0,30.04,NE,46,0.0,0.0,96,0.00,,CLR,0.00,11.00,VWS V14.01,2013-07-26 10:20:00,
2013-07-26 06:25:00,56.0,55.2,30.04,NE,46,0.0,0.0,97,0.00,,CLR,0.00,12.00,VWS V14.01,2013-07-26 10:25:00,
2013-07-26 06:31:00,55.9,55.1,30.04,NE,46,0.0,0.0,97,0.00,,CLR,0.00,14.00,VWS V14.01,2013-07-26 10:31:00,
2013-07-26 06:36:00,55.9,55.1,30.04,NE,46,0.0,0.0,97,0.00,,CLR,0.00,18.00,VWS V14.01,2013-07-26 10:36:00,
2013-07-26 06:41:00,55.9,55.1,30.04,NE,46,0.0,0.0,97,0.00,,CLR,0.00,19.00,VWS V14.01,2013-07-26 10:41:00,
2013-07-26 06:46:00,56.0,55.2,30.05,NE,46,0.0,1.0,97,0.00,,CLR,0.00,21.00,VWS V14.01,2013-07-26 10:46:00,
2013-07-26 06:51:00,56.2,55.4,30.05,NE,46,0.0,0.0,97,0.00,,CLR,0.00,23.00,VWS V14.01,2013-07-26 10:51:00,
2013-07-26 06:56:00,56.3,55.5,30.04,NE,46,0.0,0.0,97,0.00,,CLR,0.00,26.00,VWS V14.01,2013-07-26 10:56:00,
2013-07-26 07:01:00,56.5,55.7,30.05,NE,46,0.0,0.0,97,0.00,,CLR,0.00,28.00,VWS V14.01,2013-07-26 11:01:00,
2013-07-26 07:06:00,56.7,56.1,30.05,NE,46,0.0,0.0,98,0.00,,CLR,0.00,30.00,VWS V14.01,2013-07-26 11:06:00,
2013-07-26 07:11:00,56.9,56.3,30.05,NE,46,0.0,0.0,98,0.00,,CLR,0.00,32.00,VWS V14.01,2013-07-26 11:11:00,
2013-07-26 07:16:00,57.3,56.7,30.05,NE,46,0.0,1.0,98,0.00,,CLR,0.00,30.00,VWS V14.01,2013-07-26 11:16:00,
2013-07-26 07:22:00,57.6,57.0,30.05,NE,46,0.0,0.0,98,0.00,,CLR,0.00,33.00,VWS V14.01,2013-07-26 11:22:00,
2013-07-26 07:27:00,57.9,57.3,30.05,SSW,194,0.0,1.0,98,0.00,,CLR,0.00,63.00,VWS V14.01,2013-07-26 11:27:00,
2013-07-26 07:32:00,58.2,57.6,30.05,SSW,204,0.0,3.0,98,0.00,,CLR,0.00,121.00,VWS V14.01,2013-07-26 11:32:00,
2013-07-26 07:37:00,58.5,57.9,30.05,SSW,208,0.0,1.0,98,0.00,,CLR,0.00,185.00,VWS V14.01,2013-07-26 11:37:00,
2013-07-26 07:42:00,58.8,58.2,30.06,SSW,208,0.0,1.0,98,0.00,,CLR,0.00,200.00,VWS V14.01,2013-07-26 11:42:00,
2013-07-26 07:47:00,59.0,58.4,30.05,SSW,208,0.0,1.0,98,0.00,,CLR,0.00,211.00,VWS V14.01,2013-07-26 11:47:00,
2013-07-26 07:52:00,59.2,58.6,30.06,SSW,208,0.0,1.0,98,0.00,,CLR,0.00,220.00,VWS V14.01,2013-07-26 11:52:00,
2013-07-26 07:58:00,59.5,58.9,30.06,SSW,208,0.0,1.0,98,0.00,,CLR,0.00,225.00,VWS V14.01,2013-07-26 11:58:00,
2013-07-26 08:03:00,59.8,59.2,30.06,SSW,208,0.0,1.0,98,0.00,,CLR,0.00,221.00,VWS V14.01,2013-07-26 12:03:00,
2013-07-26 08:08:00,60.2,59.6,30.07,SSW,208,0.0,0.0,98,0.00,,CLR,0.00,206.00,VWS V14.01,2013-07-26 12:08:00,
2013-07-26 08:13:00,60.5,59.9,30.07,SSW,208,0.0,1.0,98,0.00,,CLR,0.00,169.00,VWS V14.01,2013-07-26 12:13:00,
2013-07-26 08:18:00,60.9,60.3,30.07,SSW,208,0.0,1.0,98,0.00,,CLR,0.00,151.00,VWS V14.01,2013-07-26 12:18:00,
2013-07-26 08:23:00,61.3,60.7,30.07,SSW,194,0.0,1.0,98,0.00,,CLR,0.00,148.00,VWS V14.01,2013-07-26 12:23:00,
2013-07-26 08:28:00,61.8,61.2,30.07,SSE,151,0.0,0.0,98,0.00,,CLR,0.00,141.00,VWS V14.01,2013-07-26 12:28:00,
2013-07-26 08:34:00,62.2,61.3,30.07,SSE,150,0.0,1.0,97,0.00,,CLR,0.00,139.00,VWS V14.01,2013-07-26 12:34:00,
2013-07-26 08:39:00,62.5,61.6,30.08,SE,144,0.0,2.0,97,0.00,,CLR,0.00,165.00,VWS V14.01,2013-07-26 12:39:00,
2013-07-26 08:44:00,63.2,62.0,30.08,SSE,156,0.0,1.0,96,0.00,,CLR,0.00,244.00,VWS V14.01,2013-07-26 12:44:00,
2013-07-26 08:49:00,63.7,62.0,30.08,SE,146,0.0,1.0,94,0.00,,CLR,0.00,278.00,VWS V14.01,2013-07-26 12:49:00,
2013-07-26 08:54:00,64.1,61.7,30.08,WNW,292,0.0,0.0,92,0.00,,CLR,0.00,311.00,VWS V14.01,2013-07-26 12:54:00,
2013-07-26 08:59:00,64.7,61.7,30.08,WNW,283,0.0,0.0,90,0.00,,CLR,0.00,334.00,VWS V14.01,2013-07-26 12:59:00,
2013-07-26 09:04:00,65.2,61.9,30.08,WNW,283,0.0,1.0,89,0.00,,CLR,0.00,350.00,VWS V14.01,2013-07-26 13:04:00,
2013-07-26 09:09:00,65.7,62.0,30.08,WNW,284,0.0,0.0,88,0.00,,CLR,0.00,366.00,VWS V14.01,2013-07-26 13:09:00,
2013-07-26 09:14:00,66.2,61.9,30.08,SE,128,0.0,1.0,86,0.00,,CLR,0.00,385.00,VWS V14.01,2013-07-26 13:14:00,
2013-07-26 09:19:00,66.7,62.0,30.08,SE,133,0.0,0.0,85,0.00,,CLR,0.00,403.00,VWS V14.01,2013-07-26 13:19:00,
2013-07-26 09:24:00,67.1,62.5,30.08,WSW,240,0.0,2.0,85,0.00,,CLR,0.00,418.00,VWS V14.01,2013-07-26 13:24:00,
2013-07-26 09:29:00,67.4,62.4,30.08,SSW,211,0.0,1.0,84,0.00,,CLR,0.00,427.00,VWS V14.01,2013-07-26 13:29:00,
2013-07-26 09:34:00,67.4,62.1,30.08,South,181,0.0,1.0,83,0.00,,CLR,0.00,425.00,VWS V14.01,2013-07-26 13:34:00,
2013-07-26 09:39:00,67.8,62.5,30.07,SSW,204,1.0,1.0,83,0.00,,CLR,0.00,427.00,VWS V14.01,2013-07-26 13:39:00,
2013-07-26 09:44:00,68.3,62.2,30.07,SW,236,0.0,0.0,81,0.00,,CLR,0.00,434.00,VWS V14.01,2013-07-26 13:44:00,
2013-07-26 09:50:00,68.7,62.3,30.07,NNW,333,0.0,1.0,80,0.00,,CLR,0.00,441.00,VWS V14.01,2013-07-26 13:50:00,
2013-07-26 09:55:00,69.2,62.8,30.07,WNW,292,0.0,3.0,80,0.00,,CLR,0.00,445.00,VWS V14.01,2013-07-26 13:55:00,
2013-07-26 10:00:00,69.6,62.8,30.07,NW,321,0.0,3.0,79,0.00,,CLR,0.00,454.00,VWS V14.01,2013-07-26 14:00:00,
2013-07-26 10:05:00,69.9,62.7,30.07,NW,321,0.0,0.0,78,0.00,,CLR,0.00,464.00,VWS V14.01,2013-07-26 14:05:00,
2013-07-26 10:10:00,70.5,63.3,30.06,WSW,240,0.0,1.0,78,0.00,,CLR,0.00,478.00,VWS V14.01,2013-07-26 14:10:00,
2013-07-26 10:15:00,70.8,62.9,30.07,SW,227,0.0,1.0,76,0.00,,CLR,0.00,492.00,VWS V14.01,2013-07-26 14:15:00,
2013-07-26 10:20:00,71.6,63.6,30.07,WNW,298,0.0,1.0,76,0.00,,CLR,0.00,519.00,VWS V14.01,2013-07-26 14:20:00,
2013-07-26 10:25:00,71.7,63.4,30.07,West,274,0.0,1.0,75,0.00,,CLR,0.00,548.00,VWS V14.01,2013-07-26 14:25:00,
2013-07-26 10:30:00,71.7,63.4,30.07,SW,217,0.0,1.0,75,0.00,,CLR,0.00,575.00,VWS V14.01,2013-07-26 14:30:00,
2013-07-26 10:35:00,71.9,63.2,30.07,ENE,66,0.0,0.0,74,0.00,,CLR,0.00,596.00,VWS V14.01,2013-07-26 14:35:00,
2013-07-26 10:36:00,71.9,63.2,30.06,ENE,66,0.0,0.0,74,0.00,,CLR,0.00,596.00,VWS V14.01,2013-07-26 14:36:00,
2013-07-26 10:41:00,72.6,63.5,30.06,ENE,71,0.0,1.0,73,0.00,,CLR,0.00,610.00,VWS V14.01,2013-07-26 14:41:00,
2013-07-26 10:46:00,73.0,64.2,30.06,East,87,0.0,1.0,74,0.00,,CLR,0.00,606.00,VWS V14.01,2013-07-26 14:46:00,
2013-07-26 10:51:00,73.5,63.5,30.06,North,355,0.0,1.0,71,0.00,,CLR,0.00,594.00,VWS V14.01,2013-07-26 14:51:00,
2013-07-26 10:56:00,73.6,64.4,30.06,ESE,115,0.0,1.0,73,0.00,,CLR,0.00,575.00,VWS V14.01,2013-07-26 14:56:00,
2013-07-26 11:01:00,73.6,63.2,30.06,SSE,160,0.0,1.0,70,0.00,,CLR,0.00,566.00,VWS V14.01,2013-07-26 15:01:00,
2013-07-26 11:07:00,74.1,64.1,30.05,South,182,0.0,3.0,71,0.00,,CLR,0.00,566.00,VWS V14.01,2013-07-26 15:07:00,
2013-07-26 11:12:00,74.0,63.2,30.06,SSW,198,0.0,4.0,69,0.00,,CLR,0.00,568.00,VWS V14.01,2013-07-26 15:12:00,
2013-07-26 11:17:00,73.9,63.1,30.06,South,175,0.0,2.0,69,0.00,,CLR,0.00,578.00,VWS V14.01,2013-07-26 15:17:00,
2013-07-26 11:22:00,74.4,63.6,30.06,West,265,0.0,3.0,69,0.00,,CLR,0.00,613.00,VWS V14.01,2013-07-26 15:22:00,
2013-07-26 11:27:00,74.9,64.1,30.06,WNW,300,0.0,1.0,69,0.00,,CLR,0.00,647.00,VWS V14.01,2013-07-26 15:27:00,
2013-07-26 11:32:00,75.4,62.8,30.05,NW,307,0.0,3.0,65,0.00,,CLR,0.00,693.00,VWS V14.01,2013-07-26 15:32:00,
2013-07-26 11:37:00,75.9,62.4,30.05,East,86,0.0,2.0,63,0.00,,CLR,0.00,745.00,VWS V14.01,2013-07-26 15:37:00,
2013-07-26 11:42:00,75.8,61.9,30.05,SE,137,0.0,1.0,62,0.00,,CLR,0.00,814.00,VWS V14.01,2013-07-26 15:42:00,
2013-07-26 11:47:00,76.0,63.0,30.05,NW,314,2.0,2.0,64,0.00,,CLR,0.00,856.00,VWS V14.01,2013-07-26 15:47:00,
2013-07-26 11:53:00,76.4,63.3,30.05,North,11,2.0,2.0,64,0.00,,CLR,0.00,842.00,VWS V14.01,2013-07-26 15:53:00,
2013-07-26 11:58:00,77.0,61.6,30.05,NNW,346,3.0,3.0,59,0.00,,CLR,0.00,893.00,VWS V14.01,2013-07-26 15:58:00,
2013-07-26 12:03:00,76.9,61.5,30.05,NW,318,0.0,5.0,59,0.00,,CLR,0.00,202.00,VWS V14.01,2013-07-26 16:03:00,
2013-07-26 12:08:00,76.2,61.3,30.05,NW,323,0.0,3.0,60,0.00,,CLR,0.00,253.00,VWS V14.01,2013-07-26 16:08:00,
2013-07-26 12:13:00,75.8,61.9,30.05,SSW,200,0.0,1.0,62,0.00,,CLR,0.00,895.00,VWS V14.01,2013-07-26 16:13:00,
2013-07-26 12:18:00,76.5,60.6,30.05,NW,321,0.0,2.0,58,0.00,,CLR,0.00,986.00,VWS V14.01,2013-07-26 16:18:00,
2013-07-26 12:23:00,77.9,62.4,30.05,NNE,30,0.0,2.0,59,0.00,,CLR,0.00,1067.00,VWS V14.01,2013-07-26 16:23:00,
2013-07-26 12:28:00,78.1,60.6,30.05,NW,313,3.0,5.0,55,0.00,,CLR,0.00,990.00,VWS V14.01,2013-07-26 16:28:00,
2013-07-26 12:33:00,77.4,61.0,30.05,WNW,303,0.0,3.0,57,0.00,,CLR,0.00,265.00,VWS V14.01,2013-07-26 16:33:00,
2013-07-26 12:39:00,76.7,60.3,30.05,North,355,2.0,5.0,57,0.00,,CLR,0.00,271.00,VWS V14.01,2013-07-26 16:39:00,
2013-07-26 12:44:00,76.3,61.9,30.05,North,350,1.0,4.0,61,0.00,,CLR,0.00,285.00,VWS V14.01,2013-07-26 16:44:00,
2013-07-26 12:49:00,76.7,60.3,30.05,NNW,329,2.0,5.0,57,0.00,,CLR,0.00,983.00,VWS V14.01,2013-07-26 16:49:00,
2013-07-26 12:54:00,77.3,60.9,30.05,NNW,335,0.0,5.0,57,0.00,,CLR,0.00,991.00,VWS V14.01,2013-07-26 16:54:00,
2013-07-26 12:59:00,77.6,60.7,30.05,NNW,337,4.0,7.0,56,0.00,,CLR,0.00,135.00,VWS V14.01,2013-07-26 16:59:00,
2013-07-26 13:04:00,77.2,60.3,30.05,North,355,0.0,7.0,56,0.00,,CLR,0.00,162.00,VWS V14.01,2013-07-26 17:04:00,
2013-07-26 13:09:00,77.5,63.0,30.05,WSW,246,0.0,2.0,61,0.00,,CLR,0.00,988.00,VWS V14.01,2013-07-26 17:09:00,
2013-07-26 13:14:00,77.8,60.4,30.05,WSW,242,0.0,1.0,55,0.00,,CLR,0.00,972.00,VWS V14.01,2013-07-26 17:14:00,
2013-07-26 13:19:00,78.3,62.3,30.04,West,261,0.0,0.0,58,0.00,,CLR,0.00,984.00,VWS V14.01,2013-07-26 17:19:00,
2013-07-26 13:24:00,78.2,60.7,30.04,SSW,206,1.0,1.0,55,0.00,,CLR,0.00,1002.00,VWS V14.01,2013-07-26 17:24:00,
2013-07-26 13:29:00,78.7,62.7,30.04,SSW,206,0.0,0.0,58,0.00,,CLR,0.00,990.00,VWS V14.01,2013-07-26 17:29:00,
2013-07-26 13:34:00,78.9,61.4,30.03,NW,307,2.0,2.0,55,0.00,,CLR,0.00,979.00,VWS V14.01,2013-07-26 17:34:00,
2013-07-26 13:39:00,79.2,61.7,30.03,NNW,330,0.0,1.0,55,0.00,,CLR,0.00,965.00,VWS V14.01,2013-07-26 17:39:00,
2013-07-26 13:44:00,79.1,60.5,30.03,NNW,330,0.0,1.0,53,0.00,,CLR,0.00,1044.00,VWS V14.01,2013-07-26 17:44:00,
2013-07-26 13:50:00,78.7,61.2,30.03,WNW,298,1.0,6.0,55,0.00,,CLR,0.00,956.00,VWS V14.01,2013-07-26 17:50:00,
2013-07-26 13:55:00,79.0,63.5,30.03,WNW,296,0.0,2.0,59,0.00,,CLR,0.00,956.00,VWS V14.01,2013-07-26 17:55:00,
2013-07-26 14:00:00,79.3,61.8,30.03,NW,304,1.0,1.0,55,0.00,,CLR,0.00,944.00,VWS V14.01,2013-07-26 18:00:00,
2013-07-26 14:05:00,79.8,60.6,30.03,South,182,0.0,1.0,52,0.00,,CLR,0.00,940.00,VWS V14.01,2013-07-26 18:05:00,
2013-07-26 14:10:00,79.6,61.0,30.03,WSW,252,0.0,2.0,53,0.00,,CLR,0.00,969.00,VWS V14.01,2013-07-26 18:10:00,
2013-07-26 14:15:00,79.4,61.3,30.03,SSW,207,0.0,4.0,54,0.00,,CLR,0.00,1037.00,VWS V14.01,2013-07-26 18:15:00,
2013-07-26 14:20:00,79.9,61.3,30.03,NW,306,4.0,4.0,53,0.00,,CLR,0.00,1042.00,VWS V14.01,2013-07-26 18:20:00,
2013-07-26 14:26:00,80.2,62.6,30.02,SW,235,1.0,7.0,55,0.00,,CLR,0.00,1095.00,VWS V14.01,2013-07-26 18:26:00,
2013-07-26 14:31:00,80.7,61.5,30.02,NNW,331,3.0,7.0,52,0.00,,CLR,0.00,1056.00,VWS V14.01,2013-07-26 18:31:00,
2013-07-26 14:36:00,80.7,61.5,30.02,NW,307,3.0,5.0,52,0.00,,CLR,0.00,984.00,VWS V14.01,2013-07-26 18:36:00,
2013-07-26 14:41:00,80.6,61.9,30.02,NW,312,0.0,4.0,53,0.00,,CLR,0.00,946.00,VWS V14.01,2013-07-26 18:41:00,
2013-07-26 14:46:00,80.6,61.9,30.02,NNW,340,0.0,3.0,53,0.00,,CLR,0.00,912.00,VWS V14.01,2013-07-26 18:46:00,
2013-07-26 14:51:00,80.3,61.1,30.02,NNW,338,0.0,1.0,52,0.00,,CLR,0.00,909.00,VWS V14.01,2013-07-26 18:51:00,
2013-07-26 14:56:00,80.6,62.4,30.02,North,350,0.0,1.0,54,0.00,,CLR,0.00,954.00,VWS V14.01,2013-07-26 18:56:00,
2013-07-26 15:01:00,80.5,61.8,30.02,SSW,200,2.0,6.0,53,0.00,,CLR,0.00,928.00,VWS V14.01,2013-07-26 19:01:00,
2013-07-26 15:06:00,80.5,62.3,30.01,SW,225,0.0,3.0,54,0.00,,CLR,0.00,954.00,VWS V14.01,2013-07-26 19:06:00,
2013-07-26 15:11:00,80.9,61.6,30.01,SW,218,1.0,4.0,52,0.00,,CLR,0.00,900.00,VWS V14.01,2013-07-26 19:11:00,
2013-07-26 15:16:00,81.1,62.4,30.01,South,187,1.0,1.0,53,0.00,,CLR,0.00,872.00,VWS V14.01,2013-07-26 19:16:00,
2013-07-26 15:21:00,80.7,62.5,30.01,South,180,2.0,2.0,54,0.00,,CLR,0.00,853.00,VWS V14.01,2013-07-26 19:21:00,
2013-07-26 15:27:00,80.9,62.7,30.01,SSW,194,5.0,9.0,54,0.00,,CLR,0.00,874.00,VWS V14.01,2013-07-26 19:27:00,
2013-07-26 15:32:00,80.9,62.2,30.01,SE,132,0.0,5.0,53,0.00,,CLR,0.00,893.00,VWS V14.01,2013-07-26 19:32:00,
2013-07-26 15:37:00,81.1,62.4,30.01,SE,145,0.0,4.0,53,0.00,,CLR,0.00,817.00,VWS V14.01,2013-07-26 19:37:00,
2013-07-26 15:42:00,81.1,62.4,30.00,SSE,156,2.0,6.0,53,0.00,,CLR,0.00,793.00,VWS V14.01,2013-07-26 19:42:00,
2013-07-26 15:47:00,81.0,61.7,30.00,ESE,117,0.0,4.0,52,0.00,,CLR,0.00,796.00,VWS V14.01,2013-07-26 19:47:00,
2013-07-26 15:52:00,81.3,63.6,30.00,SW,232,6.0,6.0,55,0.00,,CLR,0.00,775.00,VWS V14.01,2013-07-26 19:52:00,
2013-07-26 15:57:00,81.4,62.1,30.00,SSW,209,0.0,4.0,52,0.00,,CLR,0.00,772.00,VWS V14.01,2013-07-26 19:57:00,
2013-07-26 16:02:00,81.5,62.2,30.00,SSW,208,0.0,3.0,52,0.00,,CLR,0.00,752.00,VWS V14.01,2013-07-26 20:02:00,
2013-07-26 16:07:00,81.8,64.1,30.00,SSW,208,0.0,2.0,55,0.00,,CLR,0.00,733.00,VWS V14.01,2013-07-26 20:07:00,
2013-07-26 16:12:00,81.5,61.7,30.00,SE,140,0.0,2.0,51,0.00,,CLR,0.00,721.00,VWS V14.01,2013-07-26 20:12:00,
2013-07-26 16:18:00,81.7,62.4,30.00,North,349,4.0,5.0,52,0.00,,CLR,0.00,712.00,VWS V14.01,2013-07-26 20:18:00,
2013-07-26 16:23:00,82.0,62.1,30.00,NNW,338,0.0,3.0,51,0.00,,CLR,0.00,701.00,VWS V14.01,2013-07-26 20:23:00,
2013-07-26 16:28:00,82.3,62.4,30.00,NW,317,0.0,1.0,51,0.00,,CLR,0.00,698.00,VWS V14.01,2013-07-26 20:28:00,
2013-07-26 16:33:00,82.5,61.4,30.00,SE,134,2.0,4.0,49,0.00,,CLR,0.00,675.00,VWS V14.01,2013-07-26 20:33:00,
2013-07-26 16:38:00,82.5,62.0,29.99,West,271,1.0,6.0,50,0.00,,CLR,0.00,661.00,VWS V14.01,2013-07-26 20:38:00,
2013-07-26 16:43:00,82.1,61.6,29.99,SE,144,0.0,6.0,50,0.00,,CLR,0.00,645.00,VWS V14.01,2013-07-26 20:43:00,
2013-07-26 16:48:00,82.1,62.2,29.99,SE,143,0.0,1.0,51,0.00,,CLR,0.00,640.00,VWS V14.01,2013-07-26 20:48:00,
2013-07-26 16:53:00,82.2,62.3,29.99,South,170,0.0,3.0,51,0.00,,CLR,0.00,619.00,VWS V14.01,2013-07-26 20:53:00,
2013-07-26 16:58:00,82.3,62.9,29.99,SSE,156,0.0,4.0,52,0.00,,CLR,0.00,601.00,VWS V14.01,2013-07-26 20:58:00,
2013-07-26 17:03:00,82.2,62.3,29.99,SW,215,0.0,4.0,51,0.00,,CLR,0.00,550.00,VWS V14.01,2013-07-26 21:03:00,
2013-07-26 17:09:00,81.9,62.0,29.99,South,169,0.0,5.0,51,0.00,,CLR,0.00,577.00,VWS V14.01,2013-07-26 21:09:00,
2013-07-26 17:14:00,81.9,63.1,29.99,SE,144,0.0,3.0,53,0.00,,CLR,0.00,575.00,VWS V14.01,2013-07-26 21:14:00,
2013-07-26 17:19:00,82.0,63.2,29.99,East,85,0.0,1.0,53,0.00,,CLR,0.00,563.00,VWS V14.01,2013-07-26 21:19:00,
2013-07-26 17:24:00,82.2,61.7,29.99,East,92,0.0,0.0,50,0.00,,CLR,0.00,543.00,VWS V14.01,2013-07-26 21:24:00,
2013-07-26 17:29:00,82.4,63.0,29.98,North,360,0.0,1.0,52,0.00,,CLR,0.00,540.00,VWS V14.01,2013-07-26 21:29:00,
2013-07-26 17:34:00,82.5,63.1,29.99,WSW,247,0.0,1.0,52,0.00,,CLR,0.00,520.00,VWS V14.01,2013-07-26 21:34:00,
2013-07-26 17:39:00,82.4,62.5,29.98,SW,227,0.0,1.0,51,0.00,,CLR,0.00,492.00,VWS V14.01,2013-07-26 21:39:00,
2013-07-26 17:44:00,82.3,62.4,29.99,SSW,207,3.0,4.0,51,0.00,,CLR,0.00,480.00,VWS V14.01,2013-07-26 21:44:00,
2013-07-26 17:49:00,82.2,62.3,29.98,SSW,210,2.0,5.0,51,0.00,,CLR,0.00,462.00,VWS V14.01,2013-07-26 21:49:00,
2013-07-26 17:54:00,82.1,62.8,29.98,SSW,198,0.0,1.0,52,0.00,,CLR,0.00,454.00,VWS V14.01,2013-07-26 21:54:00,
2013-07-26 18:00:00,81.9,62.0,29.98,SSW,195,0.0,1.0,51,0.00,,CLR,0.00,415.00,VWS V14.01,2013-07-26 22:00:00,
2013-07-26 18:05:00,81.8,63.0,29.99,SSW,198,0.0,1.0,53,0.00,,CLR,0.00,397.00,VWS V14.01,2013-07-26 22:05:00,
2013-07-26 18:10:00,81.8,63.0,29.99,South,169,0.0,2.0,53,0.00,,CLR,0.00,397.00,VWS V14.01,2013-07-26 22:10:00,
2013-07-26 18:15:00,81.7,62.9,29.98,SW,224,2.0,4.0,53,0.00,,CLR,0.00,371.00,VWS V14.01,2013-07-26 22:15:00,
2013-07-26 18:20:00,81.6,63.4,29.99,SW,219,1.0,3.0,54,0.00,,CLR,0.00,336.00,VWS V14.01,2013-07-26 22:20:00,
2013-07-26 18:25:00,81.5,63.8,29.99,South,190,1.0,5.0,55,0.00,,CLR,0.00,306.00,VWS V14.01,2013-07-26 22:25:00,
2013-07-26 18:30:00,81.2,62.5,29.99,SSW,196,0.0,3.0,53,0.00,,CLR,0.00,227.00,VWS V14.01,2013-07-26 22:30:00,
2013-07-26 18:35:00,81.0,63.3,29.99,SE,146,0.0,3.0,55,0.00,,CLR,0.00,322.00,VWS V14.01,2013-07-26 22:35:00,
2013-07-26 18:40:00,80.9,63.8,29.99,South,189,0.0,2.0,56,0.00,,CLR,0.00,302.00,VWS V14.01,2013-07-26 22:40:00,
2013-07-26 18:45:00,80.7,63.6,29.99,SSW,198,0.0,1.0,56,0.00,,CLR,0.00,294.00,VWS V14.01,2013-07-26 22:45:00,
2013-07-26 18:50:00,80.6,63.0,29.99,SSW,208,1.0,4.0,55,0.00,,CLR,0.00,274.00,VWS V14.01,2013-07-26 22:50:00,
2013-07-26 18:55:00,80.6,63.5,29.99,South,183,0.0,1.0,56,0.00,,CLR,0.00,257.00,VWS V14.01,2013-07-26 22:55:00,
2013-07-26 19:00:00,80.5,63.9,29.99,SSW,195,0.0,1.0,57,0.00,,CLR,0.00,241.00,VWS V14.01,2013-07-26 23:00:00,
2013-07-26 19:05:00,80.3,62.7,29.98,SSW,205,0.0,1.0,55,0.00,,CLR,0.00,229.00,VWS V14.01,2013-07-26 23:05:00,
2013-07-26 19:11:00,80.2,62.6,29.99,SSW,201,0.0,2.0,55,0.00,,CLR,0.00,207.00,VWS V14.01,2013-07-26 23:11:00,
2013-07-26 19:16:00,80.1,63.0,29.99,South,185,0.0,1.0,56,0.00,,CLR,0.00,179.00,VWS V14.01,2013-07-26 23:16:00,
2013-07-26 19:21:00,80.0,62.4,29.99,South,186,0.0,3.0,55,0.00,,CLR,0.00,144.00,VWS V14.01,2013-07-26 23:21:00,
2013-07-26 19:26:00,79.8,62.7,29.99,South,186,0.0,1.0,56,0.00,,CLR,0.00,155.00,VWS V14.01,2013-07-26 23:26:00,
2013-07-26 19:31:00,79.7,62.6,29.99,South,186,0.0,1.0,56,0.00,,CLR,0.00,137.00,VWS V14.01,2013-07-26 23:31:00,
2013-07-26 19:36:00,79.6,63.0,29.99,South,186,0.0,1.0,57,0.00,,CLR,0.00,121.00,VWS V14.01,2013-07-26 23:36:00,
2013-07-26 19:41:00,79.5,63.4,29.99,South,186,0.0,0.0,58,0.00,,CLR,0.00,104.00,VWS V14.01,2013-07-26 23:41:00,
2013-07-26 19:46:00,79.3,63.3,29.99,South,186,0.0,0.0,58,0.00,,CLR,0.00,86.00,VWS V14.01,2013-07-26 23:46:00,
2013-07-26 19:51:00,79.2,63.7,29.99,South,186,0.0,1.0,59,0.00,,CLR,0.00,72.00,VWS V14.01,2013-07-26 23:51:00,
2013-07-26 19:56:00,79.1,63.6,29.99,South,186,0.0,0.0,59,0.00,,CLR,0.00,58.00,VWS V14.01,2013-07-26 23:56:00,
2013-07-26 20:02:00,78.8,63.8,29.99,South,186,0.0,0.0,60,0.00,,CLR,0.00,42.00,VWS V14.01,2013-07-27 00:02:00,
2013-07-26 20:07:00,78.7,64.1,29.99,South,186,0.0,0.0,61,0.00,,CLR,0.00,23.00,VWS V14.01,2013-07-27 00:07:00,
2013-07-26 20:12:00,78.2,63.7,29.99,South,186,0.0,0.0,61,0.00,,CLR,0.00,12.00,VWS V14.01,2013-07-27 00:12:00,
2013-07-26 20:17:00,77.7,63.7,29.99,South,186,0.0,0.0,62,0.00,,CLR,0.00,9.00,VWS V14.01,2013-07-27 00:17:00,
2013-07-26 20:22:00,77.1,63.5,29.99,South,186,0.0,0.0,63,0.00,,CLR,0.00,5.00,VWS V14.01,2013-07-27 00:22:00,
2013-07-26 20:27:00,76.6,63.5,29.99,South,186,0.0,0.0,64,0.00,,CLR,0.00,0.00,VWS V14.01,2013-07-27 00:27:00,
2013-07-26 20:32:00,76.0,63.4,29.99,South,186,0.0,0.0,65,0.00,,CLR,0.00,0.00,VWS V14.01,2013-07-27 00:32:00,
2013-07-26 20:37:00,75.3,63.2,29.99,South,186,0.0,0.0,66,0.00,,CLR,0.00,0.00,VWS V14.01,2013-07-27 00:37:00,
2013-07-26 20:42:00,74.7,63.0,29.99,South,186,0.0,0.0,67,0.00,,CLR,0.00,0.00,VWS V14.01,2013-07-27 00:42:00,
2013-07-26 20:47:00,74.0,62.8,29.99,South,186,0.0,0.0,68,0.00,,CLR,0.00,0.00,VWS V14.01,2013-07-27 00:47:00,
2013-07-26 20:53:00,73.4,62.6,29.99,South,186,0.0,0.0,69,0.00,,CLR,0.00,0.00,VWS V14.01,2013-07-27 00:53:00,
2013-07-26 20:58:00,72.8,62.5,29.99,South,186,0.0,0.0,70,0.00,,CLR,0.00,0.00,VWS V14.01,2013-07-27 00:58:00,
2013-07-26 21:03:00,72.2,62.3,29.99,South,186,0.0,0.0,71,0.00,,CLR,0.00,0.00,VWS V14.01,2013-07-27 01:03:00,
2013-07-26 21:08:00,71.7,62.2,29.99,South,186,0.0,0.0,72,0.00,,CLR,0.00,0.00,VWS V14.01,2013-07-27 01:08:00,
2013-07-26 21:13:00,71.3,62.2,29.99,South,186,0.0,0.0,73,0.00,,CLR,0.00,0.00,VWS V14.01,2013-07-27 01:13:00,
2013-07-26 21:18:00,70.8,62.1,29.99,South,186,0.0,0.0,74,0.00,,CLR,0.00,0.00,VWS V14.01,2013-07-27 01:18:00,
2013-07-26 21:23:00,70.4,61.7,30.00,South,186,0.0,0.0,74,0.00,,CLR,0.00,0.00,VWS V14.01,2013-07-27 01:23:00,
2013-07-26 21:28:00,70.1,61.8,29.99,South,186,0.0,0.0,75,0.00,,CLR,0.00,0.00,VWS V14.01,2013-07-27 01:28:00,
2013-07-26 21:33:00,69.7,61.4,29.99,South,186,0.0,0.0,75,0.00,,CLR,0.00,0.00,VWS V14.01,2013-07-27 01:33:00,
2013-07-26 21:38:00,69.4,61.1,29.99,South,186,0.0,0.0,75,0.00,,CLR,0.00,0.00,VWS V14.01,2013-07-27 01:38:00,
2013-07-26 21:43:00,69.1,61.2,30.00,South,186,0.0,0.0,76,0.00,,CLR,0.00,0.00,VWS V14.01,2013-07-27 01:43:00,
2013-07-26 21:48:00,68.7,61.2,30.00,South,186,0.0,0.0,77,0.00,,CLR,0.00,0.00,VWS V14.01,2013-07-27 01:48:00,
2013-07-26 21:54:00,68.3,61.2,30.00,South,186,0.0,0.0,78,0.00,,CLR,0.00,0.00,VWS V14.01,2013-07-27 01:54:00,
2013-07-26 21:59:00,68.0,60.9,30.00,South,186,0.0,0.0,78,0.00,,CLR,0.00,0.00,VWS V14.01,2013-07-27 01:59:00,
2013-07-26 22:04:00,67.7,61.0,30.00,South,186,0.0,0.0,79,0.00,,CLR,0.00,0.00,VWS V14.01,2013-07-27 02:04:00,
2013-07-26 22:09:00,67.5,60.8,30.00,South,186,0.0,0.0,79,0.00,,CLR,0.00,0.00,VWS V14.01,2013-07-27 02:09:00,
2013-07-26 22:14:00,67.2,60.5,30.00,South,186,0.0,0.0,79,0.00,,CLR,0.00,0.00,VWS V14.01,2013-07-27 02:14:00,
2013-07-26 22:19:00,67.0,60.3,30.00,South,186,0.0,0.0,79,0.00,,CLR,0.00,0.00,VWS V14.01,2013-07-27 02:19:00,
2013-07-26 22:24:00,66.8,60.1,30.00,South,186,0.0,0.0,79,0.00,,CLR,0.00,0.00,VWS V14.01,2013-07-27 02:24:00,
2013-07-26 22:29:00,66.5,59.8,30.00,South,186,0.0,0.0,79,0.00,,CLR,0.00,0.00,VWS V14.01,2013-07-27 02:29:00,
2013-07-26 22:34:00,66.3,60.0,30.00,South,186,0.0,0.0,80,0.00,,CLR,0.00,0.00,VWS V14.01,2013-07-27 02:34:00,
2013-07-26 22:39:00,66.1,59.8,30.00,South,186,0.0,0.0,80,0.00,,CLR,0.00,0.00,VWS V14.01,2013-07-27 02:39:00,
2013-07-26 22:44:00,66.0,60.0,30.00,South,186,0.0,0.0,81,0.00,,CLR,0.00,0.00,VWS V14.01,2013-07-27 02:44:00,
2013-07-26 22:49:00,65.8,59.8,30.00,South,186,0.0,0.0,81,0.00,,CLR,0.00,0.00,VWS V14.01,2013-07-27 02:49:00,
2013-07-26 22:54:00,65.7,59.7,30.00,South,186,0.0,0.0,81,0.00,,CLR,0.00,0.00,VWS V14.01,2013-07-27 02:54:00,
2013-07-26 22:59:00,65.5,59.5,30.00,South,186,0.0,0.0,81,0.00,,CLR,0.00,0.00,VWS V14.01,2013-07-27 02:59:00,
2013-07-26 23:04:00,65.4,59.4,30.00,South,186,0.0,0.0,81,0.00,,CLR,0.00,0.00,VWS V14.01,2013-07-27 03:04:00,
2013-07-26 23:10:00,65.3,59.3,30.00,South,186,0.0,0.0,81,0.00,,CLR,0.00,0.00,VWS V14.01,2013-07-27 03:10:00,
2013-07-26 23:15:00,65.2,59.2,30.00,South,186,0.0,0.0,81,0.00,,CLR,0.00,0.00,VWS V14.01,2013-07-27 03:15:00,
2013-07-26 23:20:00,65.1,59.5,30.01,South,186,0.0,0.0,82,0.00,,CLR,0.00,0.00,VWS V14.01,2013-07-27 03:20:00,
2013-07-26 23:25:00,65.0,59.4,30.01,South,186,0.0,0.0,82,0.00,,CLR,0.00,0.00,VWS V14.01,2013-07-27 03:25:00,
2013-07-26 23:30:00,64.9,60.0,30.00,South,186,0.0,0.0,84,0.00,,CLR,0.00,0.00,VWS V14.01,2013-07-27 03:30:00,
2013-07-26 23:35:00,64.9,60.0,30.00,South,186,0.0,0.0,84,0.00,,CLR,0.00,0.00,VWS V14.01,2013-07-27 03:35:00,
2013-07-26 23:40:00,64.8,59.9,30.00,South,186,0.0,0.0,84,0.00,,CLR,0.00,0.00,VWS V14.01,2013-07-27 03:40:00,
2013-07-26 23:45:00,64.7,60.1,30.01,South,186,0.0,0.0,85,0.00,,CLR,0.00,0.00,VWS V14.01,2013-07-27 03:45:00,
2013-07-26 23:50:00,64.6,60.0,30.01,South,186,0.0,0.0,85,0.00,,CLR,0.00,0.00,VWS V14.01,2013-07-27 03:50:00,
2013-07-26 23:55:00,64.5,59.9,30.01,South,186,0.0,0.0,85,0.00,,CLR,0.00,0.00,VWS V14.01,2013-07-27 03:55:00,